QPF
0.00 0.00 0.00 0.00 0.00 0.00 0.00 0.00 0.00 0.00 0.00 0.00 0.00 0.00 0.00 0.00 0.00 0.00 0.00 0.00 0.00 0.00 0.00 0.00 0.00 0.00 0.00 0.00 0.00 0.00 0.00 0.00 0.00 0.00 0.00 0.00 0.00 0.00 0.00 0.01 0.01 0.00 0.00 0.00
0.00 0.00 0.00 0.00 0.00 0.00 0.00 0.00 0.00 0.00 0.00 0.00 0.00 0.00 0.00 0.00 0.00 0.00 0.00 0.00 0.00 0.00 0.00 0.00 0.00 0.00 0.00 0.00 0.00 0.00 0.00 0.00 0.00 0.00 0.00 0.00 0.00 0.00 0.00 0.00 0.00 0.00 0.01 0.00
0.00 0.00 0.00 0.00 0.00 0.00 0.00 0.00 0.00 0.00 0.00 0.00 0.00 0.00 0.00 0.00 0.00 0.00 0.00 0.00 0.00 0.00 0.00 0.00 0.00 0.00 0.00 0.00 0.00 0.00 0.00 0.00 0.00 0.00 0.00 0.00 0.00 0.00 0.00 0.00 0.00 0.00 0.00 0.00
0.00 0.00 0.00 0.00 0.00 0.00 0.00 0.00 0.00 0.00 0.00 0.00 0.00 0.00 0.00 0.00 0.00 0.00 0.00 0.00 0.00 0.00 0.00 0.00 0.00 0.00 0.00 0.00 0.00 0.00 0.00 0.00 0.00 0.00 0.00 0.00 0.00 0.00 0.00 0.00 0.00 0.00 0.00 0.00
0.00 0.00 0.00 0.00 0.00 0.00 0.00 0.00 0.00 0.00 0.00 0.00 0.00 0.00 0.00 0.00 0.00 0.00 0.00 0.00 0.00 0.00 0.00 0.00 0.00 0.00 0.00 0.00 0.00 0.00 0.00 0.00 0.00 0.00 0.00 0.00 0.00 0.00 0.00 0.00 0.00 0.00 0.00 0.00
0.00 0.00 0.00 0.00 0.00 0.00 0.00 0.00 0.00 0.00 0.00 0.00 0.00 0.00 0.00 0.00 0.00 0.00 0.00 0.00 0.00 0.00 0.00 0.00 0.00 0.00 0.00 0.00 0.00 0.00 0.00 0.00 0.00 0.00 0.00 0.00 0.00 0.00 0.00 0.00 0.00 0.00 0.00 0.00
0.00 0.00 0.00 0.00 0.00 0.00 0.00 0.00 0.00 0.00 0.00 0.00 0.00 0.00 0.00 0.00 0.00 0.00 0.00 0.00 0.00 0.00 0.00 0.00 0.00 0.00 0.00 0.00 0.00 0.00 0.00 0.00 0.00 0.00 0.00 0.00 0.00 0.00 0.00 0.00 0.00 0.00 0.00 0.00
0.00 0.00 0.00 0.00 0.00 0.00 0.00 0.00 0.00 0.00 0.00 0.00 0.00 0.00 0.00 0.00 0.00 0.00 0.00 0.00 0.00 0.00 0.00 0.00 0.00 0.00 0.00 0.00 0.00 0.00 0.00 0.00 0.00 0.00 0.00 0.00 0.00 0.00 0.00 0.00 0.00 0.00 0.00 0.00
0.00 0.00 0.00 0.00 0.00 0.00 0.00 0.00 0.00 0.00 0.00 0.00 0.00 0.00 0.00 0.00 0.00 0.00 0.00 0.00 0.00 0.00 0.00 0.00 0.00 0.00 0.00 0.00 0.00 0.00 0.00 0.00 0.00 0.00 0.00 0.00 0.00 0.00 0.00 0.00 0.00 0.00 0.00 0.00
0.00 0.00 0.00 0.00 0.00 0.00 0.00 0.00 0.00 0.00 0.00 0.00 0.00 0.00 0.00 0.00 0.00 0.00 0.00 0.00 0.00 0.00 0.00 0.00 0.00 0.00 0.00 0.00 0.00 0.00 0.00 0.00 0.00 0.00 0.00 0.00 0.00 0.00 0.00 0.00 0.00 0.00 0.00 0.00
0.00 0.00 0.00 0.00 0.00 0.00 0.00 0.00 0.00 0.00 0.00 0.00 0.00 0.00 0.00 0.00 0.00 0.00 0.00 0.00 0.00 0.00 0.00 0.00 0.00 0.00 0.00 0.00 0.00 0.00 0.00 0.00 0.00 0.00 0.00 0.00 0.00 0.00 0.00 0.00 0.00 0.00 0.00 0.00
0.00 0.00 0.00 0.00 0.00 0.00 0.00 0.00 0.00 0.00 0.00 0.00 0.00 0.00 0.00 0.00 0.00 0.00 0.00 0.00 0.00 0.00 0.00 0.00 0.00 0.00 0.00 0.00 0.00 0.00 0.00 0.00 0.00 0.00 0.00 0.00 0.00 0.00 0.00 0.00 0.00 0.00 0.00 0.00
0.00 0.00 0.00 0.00 0.00 0.00 0.00 0.00 0.00 0.00 0.00 0.00 0.00 0.00 0.00 0.00 0.00 0.00 0.00 0.00 0.00 0.00 0.00 0.00 0.00 0.00 0.00 0.00 0.00 0.00 0.00 0.00 0.00 0.00 0.00 0.00 0.00 0.00 0.00 0.00 0.00 0.00 0.00 0.00
0.00 0.00 0.00 0.00 0.00 0.00 0.00 0.00 0.00 0.00 0.00 0.00 0.00 0.00 0.00 0.00 0.00 0.00 0.00 0.00 0.00 0.00 0.00 0.00 0.00 0.00 0.00 0.00 0.00 0.00 0.00 0.00 0.00 0.00 0.00 0.00 0.00 0.00 0.00 0.00 0.00 0.00 0.00 0.00
0.00 0.00 0.00 0.00 0.00 0.00 0.00 0.00 0.00 0.00 0.00 0.00 0.00 0.00 0.00 0.00 0.00 0.00 0.00 0.00 0.00 0.00 0.00 0.00 0.00 0.00 0.00 0.00 0.00 0.00 0.00 0.00 0.00 0.00 0.00 0.00 0.00 0.00 0.00 0.00 0.00 0.00 0.00 0.00
0.00 0.00 0.00 0.00 0.00 0.00 0.00 0.00 0.00 0.00 0.00 0.00 0.00 0.00 0.00 0.00 0.00 0.00 0.00 0.00 0.00 0.00 0.00 0.00 0.00 0.00 0.00 0.00 0.00 0.00 0.00 0.00 0.00 0.00 0.00 0.00 0.00 0.00 0.00 0.00 0.00 0.00 0.00 0.00
0.00 0.00 0.00 0.00 0.00 0.00 0.00 0.00 0.00 0.00 0.00 0.00 0.00 0.00 0.00 0.00 0.00 0.00 0.00 0.00 0.00 0.00 0.00 0.00 0.00 0.00 0.00 0.00 0.00 0.00 0.00 0.00 0.00 0.00 0.00 0.00 0.00 0.00 0.00 0.00 0.00 0.00 0.00 0.00
0.00 0.00 0.00 0.00 0.00 0.00 0.00 0.00 0.00 0.00 0.00 0.00 0.00 0.00 0.00 0.00 0.00 0.00 0.00 0.00 0.00 0.00 0.00 0.00 0.00 0.00 0.00 0.00 0.00 0.00 0.00 0.00 0.00 0.00 0.00 0.00 0.00 0.00 0.00 0.00 0.00 0.00 0.00 0.00
0.00 0.00 0.00 0.00 0.00 0.00 0.00 0.00 0.00 0.00 0.00 0.00 0.00 0.00 0.00 0.00 0.00 0.00 0.00 0.00 0.00 0.00 0.00 0.00 0.00 0.00 0.00 0.00 0.00 0.00 0.00 0.00 0.00 0.00 0.00 0.00 0.00 0.00 0.00 0.00 0.00 0.00 0.00 0.00
0.00 0.00 0.00 0.00 0.00 0.00 0.00 0.00 0.00 0.00 0.00 0.00 0.00 0.00 0.00 0.00 0.00 0.00 0.00 0.00 0.00 0.00 0.00 0.00 0.00 0.00 0.00 0.00 0.00 0.00 0.00 0.00 0.00 0.00 0.00 0.00 0.00 0.00 0.00 0.00 0.00 0.00 0.00 0.00
0.00 0.00 0.00 0.00 0.00 0.00 0.00 0.00 0.00 0.00 0.00 0.00 0.00 0.00 0.00 0.00 0.00 0.00 0.00 0.00 0.00 0.00 0.00 0.00 0.00 0.00 0.00 0.00 0.00 0.00 0.00 0.00 0.00 0.00 0.00 0.00 0.00 0.00 0.00 0.00 0.00 0.00 0.00 0.00
0.00 0.00 0.00 0.00 0.00 0.00 0.00 0.00 0.00 0.00 0.00 0.00 0.00 0.00 0.00 0.00 0.00 0.00 0.00 0.00 0.00 0.00 0.00 0.00 0.00 0.00 0.00 0.00 0.00 0.00 0.00 0.00 0.00 0.00 0.00 0.00 0.00 0.00 0.00 0.00 0.00 0.00 0.00 0.00
0.00 0.00 0.00 0.00 0.00 0.00 0.00 0.00 0.00 0.00 0.00 0.00 0.00 0.00 0.00 0.00 0.00 0.00 0.00 0.00 0.00 0.00 0.00 0.00 0.00 0.00 0.00 0.00 0.00 0.00 0.00 0.00 0.00 0.00 0.00 0.00 0.00 0.00 0.00 0.00 0.00 0.00 0.00 0.00
0.00 0.00 0.00 0.00 0.00 0.00 0.00 0.00 0.00 0.00 0.00 0.00 0.00 0.00 0.00 0.00 0.00 0.00 0.00 0.00 0.00 0.00 0.00 0.00 0.00 0.00 0.00 0.00 0.00 0.00 0.00 0.00 0.00 0.00 0.00 0.00 0.00 0.00 0.00 0.00 0.00 0.00 0.00 0.00
0.00 0.00 0.00 0.00 0.00 0.00 0.00 0.00 0.00 0.00 0.00 0.00 0.00 0.00 0.00 0.00 0.00 0.00 0.00 0.00 0.00 0.00 0.00 0.00 0.00 0.00 0.00 0.00 0.00 0.00 0.00 0.00 0.00 0.00 0.00 0.00 0.00 0.00 0.00 0.00 0.00 0.00 0.00 0.00
0.00 0.00 0.00 0.00 0.00 0.00 0.00 0.00 0.00 0.00 0.00 0.00 0.00 0.00 0.00 0.00 0.00 0.00 0.00 0.00 0.00 0.00 0.00 0.00 0.00 0.00 0.00 0.00 0.00 0.00 0.00 0.00 0.00 0.00 0.00 0.00 0.00 0.00 0.00 0.00 0.00 0.00 0.00 0.00
0.00 0.00 0.00 0.00 0.00 0.00 0.00 0.00 0.00 0.00 0.00 0.00 0.00 0.00 0.00 0.00 0.00 0.00 0.00 0.00 0.00 0.00 0.00 0.00 0.00 0.00 0.00 0.00 0.00 0.00 0.00 0.00 0.00 0.00 0.00 0.00 0.00 0.00 0.00 0.00 0.00 0.00 0.00 0.00
MSLP
1022.16 1021.22 1020.13 1019.12 1018.05 1017.12 1015.83 1015.32 1015.63 1016.80 1014.70 1014.30 1016.11 1017.58 1018.84 1019.42 1019.50 1019.23 1019.29 1019.29 1019.40 1019.51 1019.65 1019.83 1020.13 1020.85 1021.24 1021.59 1021.28 1020.69 1021.14 1021.19 1020.45 1021.64 1022.56 1022.77 1022.46 1022.03 1021.16 1019.99 1018.78 1018.40 1018.72 1020.81
1022.56 1021.67 1020.62 1019.72 1018.75 1017.95 1017.13 1016.65 1017.42 1017.76 1016.30 1016.35 1017.83 1019.16 1019.94 1020.44 1020.33 1020.27 1020.24 1020.49 1020.62 1020.76 1020.74 1020.83 1021.05 1021.52 1022.24 1022.16 1021.84 1021.72 1021.61 1021.38 1020.84 1021.89 1022.88 1022.85 1022.68 1022.92 1023.10 1022.26 1021.31 1020.33 1020.73 1022.04
1023.06 1022.17 1021.14 1020.26 1019.36 1018.58 1017.85 1017.39 1017.94 1018.43 1018.59 1019.19 1019.42 1019.97 1020.63 1021.00 1021.30 1021.25 1021.40 1021.46 1021.31 1021.25 1021.37 1021.57 1022.08 1022.34 1022.70 1022.68 1022.59 1022.54 1022.35 1022.00 1021.80 1022.05 1022.80 1023.15 1023.11 1023.44 1023.52 1023.34 1022.67 1022.77 1023.22 1023.31
1023.54 1022.78 1021.81 1021.03 1019.98 1019.04 1018.29 1018.86 1020.68 1020.98 1020.56 1020.65 1020.82 1021.08 1021.64 1021.82 1021.93 1021.89 1022.05 1022.11 1022.37 1022.59 1022.60 1022.56 1022.91 1023.07 1022.85 1023.00 1022.93 1022.79 1022.76 1022.49 1022.50 1022.83 1023.09 1023.25 1023.67 1023.95 1024.32 1024.56 1025.12 1024.67 1024.96 1024.80
1024.15 1023.35 1022.51 1021.99 1021.02 1020.02 1019.88 1020.46 1021.19 1021.48 1021.64 1021.84 1021.88 1022.19 1022.68 1022.84 1023.00 1023.03 1023.15 1023.33 1023.51 1023.64 1024.09 1024.60 1024.46 1024.22 1023.90 1023.84 1023.28 1023.11 1023.11 1022.79 1022.92 1022.89 1023.22 1023.39 1024.15 1024.65 1024.97 1025.43 1025.88 1025.53 1025.29 1025.19
1024.68 1023.99 1023.31 1022.74 1022.00 1021.02 1021.59 1022.41 1022.39 1022.01 1022.80 1022.94 1022.91 1023.77 1023.76 1023.62 1023.47 1023.98 1024.15 1024.06 1024.07 1024.64 1025.38 1025.26 1025.15 1024.95 1024.86 1024.84 1024.47 1023.91 1023.81 1023.43 1023.03 1022.74 1023.33 1023.49 1024.22 1025.72 1025.84 1026.43 1026.87 1026.95 1026.35 1026.33
1025.10 1024.60 1024.09 1023.66 1023.31 1022.58 1022.80 1023.85 1023.09 1022.96 1023.81 1024.10 1024.68 1024.81 1024.58 1024.42 1024.29 1024.33 1024.59 1024.61 1024.64 1025.80 1025.84 1025.66 1025.36 1025.15 1025.09 1024.90 1024.75 1024.67 1024.15 1024.06 1023.74 1023.06 1023.47 1023.85 1025.72 1026.12 1026.29 1026.88 1027.46 1027.52 1027.33 1026.96
1025.54 1025.09 1024.69 1024.42 1024.11 1023.93 1023.74 1024.35 1023.91 1024.20 1024.94 1025.40 1025.73 1025.72 1025.45 1024.84 1024.74 1024.80 1025.04 1025.42 1025.79 1025.84 1025.72 1025.17 1024.99 1024.68 1024.84 1024.75 1024.98 1024.84 1024.98 1024.61 1024.17 1023.70 1023.70 1025.27 1025.85 1026.48 1026.94 1027.15 1028.06 1028.43 1028.22 1027.82
1025.93 1025.56 1025.25 1025.05 1024.84 1024.68 1024.39 1025.18 1025.09 1025.03 1025.26 1027.34 1027.88 1026.99 1026.52 1026.13 1025.58 1024.85 1025.55 1025.73 1025.88 1025.86 1025.19 1024.75 1024.67 1024.80 1025.54 1025.09 1025.10 1025.23 1025.05 1025.22 1024.75 1024.40 1024.40 1024.97 1026.38 1026.86 1027.34 1027.71 1028.30 1029.26 1029.30 1029.05
1026.26 1025.98 1025.72 1025.48 1025.29 1025.20 1024.93 1025.85 1026.12 1025.69 1026.68 1028.22 1028.05 1027.93 1028.10 1027.78 1027.15 1026.42 1026.15 1026.30 1025.91 1025.66 1024.89 1024.68 1025.01 1025.37 1026.45 1026.15 1026.46 1026.60 1026.13 1025.94 1025.65 1025.47 1025.57 1026.53 1027.47 1027.62 1027.68 1028.90 1030.70 1030.61 1030.54 1030.38
1026.54 1026.40 1026.11 1025.81 1025.65 1025.63 1025.47 1026.46 1026.43 1026.12 1027.31 1028.76 1028.81 1028.97 1029.05 1028.58 1028.47 1027.75 1027.07 1027.00 1026.69 1026.02 1025.62 1025.45 1025.84 1025.88 1027.05 1027.52 1028.40 1028.85 1028.77 1028.46 1027.37 1027.15 1027.21 1027.91 1028.86 1028.28 1029.69 1031.74 1031.80 1032.04 1031.86 1031.67
1026.73 1026.73 1026.52 1026.15 1025.91 1025.88 1025.76 1026.22 1026.83 1026.65 1027.26 1028.86 1029.25 1029.50 1029.70 1029.80 1029.75 1029.42 1028.36 1028.06 1027.97 1027.91 1027.03 1026.88 1026.79 1026.81 1027.54 1028.38 1028.48 1030.14 1030.34 1031.27 1030.84 1030.23 1029.75 1030.38 1030.87 1031.33 1032.44 1033.01 1033.40 1033.16 1033.13 1033.02
1026.66 1026.63 1026.69 1026.53 1026.28 1026.20 1026.00 1026.53 1027.05 1026.96 1027.81 1028.90 1029.09 1029.21 1029.57 1029.62 1029.78 1029.95 1029.50 1028.74 1029.06 1028.79 1029.00 1028.21 1028.09 1028.25 1028.74 1028.72 1029.94 1030.70 1031.67 1032.52 1031.93 1031.61 1031.72 1031.83 1031.89 1032.56 1033.43 1034.07 1034.35 1034.42 1034.30 1034.05
1026.72 1026.62 1026.89 1026.91 1026.70 1026.64 1026.57 1026.83 1027.52 1027.32 1027.39 1027.80 1029.13 1029.51 1029.58 1029.77 1029.56 1029.74 1029.81 1029.72 1029.73 1029.48 1029.07 1028.68 1028.68 1028.91 1030.05 1030.43 1031.55 1032.14 1033.79 1033.80 1034.00 1032.85 1032.49 1032.58 1032.62 1032.71 1034.42 1034.87 1035.29 1035.28 1035.01 1034.70
1026.91 1026.93 1026.87 1027.17 1027.10 1027.11 1027.19 1027.32 1027.71 1027.77 1027.98 1027.71 1028.64 1029.22 1029.62 1029.78 1029.65 1029.65 1029.80 1029.89 1029.84 1029.44 1029.21 1029.21 1029.94 1030.74 1031.05 1031.72 1032.19 1033.81 1035.07 1036.01 1035.98 1034.96 1034.86 1035.35 1034.68 1034.92 1035.22 1035.58 1035.67 1035.58 1035.16 1034.46
1027.01 1027.07 1026.89 1026.84 1027.19 1027.32 1027.28 1027.26 1027.82 1027.85 1028.01 1027.92 1028.44 1029.06 1029.21 1029.48 1029.65 1029.74 1030.00 1030.19 1030.20 1030.05 1029.81 1030.47 1031.37 1032.40 1032.46 1031.91 1033.17 1035.35 1036.25 1036.88 1037.14 1036.81 1036.82 1036.86 1036.33 1036.05 1036.35 1036.50 1036.18 1035.75 1035.11 1034.68
1026.96 1027.16 1027.09 1027.10 1027.15 1027.40 1027.63 1028.00 1027.98 1027.84 1027.81 1027.85 1028.29 1028.54 1029.17 1029.50 1029.62 1029.76 1029.80 1030.30 1030.41 1030.30 1030.65 1030.91 1031.21 1032.02 1032.46 1033.06 1034.29 1035.97 1036.78 1037.25 1037.53 1037.70 1037.86 1037.21 1037.04 1037.14 1037.02 1036.73 1036.16 1035.61 1035.00 1034.33
1026.85 1027.10 1027.34 1027.47 1027.53 1027.59 1027.76 1027.95 1027.91 1027.86 1027.77 1027.89 1028.23 1028.37 1029.00 1029.62 1029.31 1029.43 1030.09 1029.86 1030.19 1030.86 1031.11 1031.53 1031.69 1032.61 1033.16 1034.47 1035.92 1036.79 1037.37 1037.62 1037.73 1038.10 1038.46 1038.43 1037.90 1037.54 1037.02 1036.46 1035.68 1034.99 1034.32 1033.55
1026.75 1027.20 1027.59 1027.72 1027.70 1027.65 1027.93 1028.03 1028.05 1028.10 1028.30 1028.19 1028.56 1028.93 1029.03 1029.65 1029.76 1029.98 1030.07 1030.22 1030.06 1031.32 1031.19 1031.87 1032.49 1032.93 1034.04 1035.57 1036.78 1037.49 1038.01 1038.45 1038.47 1038.34 1038.38 1038.11 1037.84 1037.24 1036.58 1035.81 1035.27 1034.57 1033.75 1032.88
1027.03 1027.41 1027.65 1027.41 1027.73 1027.88 1027.98 1028.03 1027.97 1028.08 1028.74 1028.92 1029.27 1030.17 1029.83 1030.49 1030.03 1030.03 1030.42 1030.39 1030.57 1030.68 1032.10 1032.44 1032.45 1033.62 1035.16 1036.35 1037.32 1037.92 1038.34 1038.64 1038.73 1038.47 1037.81 1037.51 1037.19 1036.72 1036.08 1035.55 1034.84 1034.18 1033.45 1032.69
1027.26 1027.27 1027.36 1027.79 1027.92 1027.86 1027.87 1028.03 1028.18 1028.94 1029.46 1029.94 1030.43 1030.80 1030.92 1031.35 1031.12 1030.88 1031.58 1031.03 1031.06 1031.04 1032.01 1032.18 1032.55 1033.48 1035.25 1036.62 1037.46 1038.06 1038.36 1038.50 1038.52 1038.29 1037.79 1037.34 1036.86 1036.33 1035.74 1035.22 1034.66 1034.07 1033.40 1032.71
1027.19 1027.37 1027.72 1027.82 1027.86 1027.82 1027.95 1028.57 1029.13 1029.43 1030.11 1030.64 1030.84 1031.11 1031.39 1031.62 1031.92 1031.53 1031.87 1031.35 1031.42 1031.32 1032.20 1032.14 1032.44 1034.19 1035.75 1036.89 1037.55 1037.94 1038.01 1038.06 1037.87 1037.62 1037.34 1037.03 1036.65 1036.16 1035.74 1035.12 1034.53 1034.02 1033.44 1032.69
1027.26 1027.38 1027.52 1027.71 1028.03 1028.13 1028.22 1028.86 1029.29 1029.79 1030.47 1031.06 1031.31 1031.50 1031.82 1032.01 1032.13 1031.96 1031.86 1031.50 1031.43 1032.01 1031.77 1031.75 1032.87 1034.67 1035.95 1037.06 1037.57 1037.72 1037.84 1037.75 1037.57 1037.38 1037.13 1036.85 1036.42 1036.09 1035.63 1035.02 1034.60 1034.13 1033.41 1032.46
1027.18 1027.43 1027.71 1028.04 1028.15 1028.45 1028.72 1029.21 1029.78 1030.50 1030.82 1031.25 1031.65 1031.70 1031.96 1032.02 1031.92 1031.96 1031.57 1031.87 1031.92 1031.29 1031.44 1031.88 1033.37 1035.07 1036.36 1037.19 1037.61 1037.76 1037.78 1037.71 1037.59 1037.41 1037.13 1036.79 1036.46 1035.98 1035.50 1035.04 1034.65 1033.92 1033.12 1032.19
1027.54 1027.76 1027.81 1028.29 1028.62 1029.02 1029.65 1030.15 1030.51 1031.13 1031.58 1031.76 1031.98 1032.01 1032.10 1031.78 1031.85 1031.82 1031.67 1031.58 1031.07 1031.15 1031.43 1032.44 1033.99 1035.56 1036.69 1037.36 1037.62 1037.87 1037.93 1037.87 1037.77 1037.56 1037.21 1036.83 1036.39 1035.97 1035.38 1035.00 1034.35 1033.74 1033.07 1032.20
1028.06 1028.18 1028.46 1028.89 1028.93 1029.49 1030.15 1030.50 1030.90 1031.61 1031.84 1032.13 1032.23 1031.98 1031.81 1031.76 1031.77 1031.56 1031.15 1031.12 1030.78 1031.12 1031.99 1033.14 1034.58 1035.98 1036.94 1037.54 1037.83 1037.88 1037.86 1037.80 1037.65 1037.40 1037.12 1036.73 1036.39 1035.86 1035.47 1034.74 1034.00 1033.57 1032.90 1032.30
1028.33 1028.47 1028.52 1028.68 1028.95 1029.23 1029.92 1030.46 1031.11 1031.72 1031.98 1031.92 1032.23 1032.15 1031.80 1032.23 1031.61 1031.13 1031.20 1030.76 1031.04 1031.68 1032.59 1033.82 1035.22 1036.30 1037.11 1037.66 1037.83 1037.90 1037.87 1037.70 1037.47 1037.26 1037.09 1036.76 1036.10 1035.77 1035.06 1034.39 1033.89 1033.37 1032.68 1032.22
Thickness
5490 5483 5475 5468 5458 5443 5432 5416 5390 5365 5366 5361 5333 5311 5302 5301 5300 5305 5303 5303 5300 5299 5299 5298 5296 5287 5286 5283 5286 5289 5284 5279 5295 5273 5256 5255 5260 5264 5281 5306 5320 5330 5338 5313
5483 5476 5468 5460 5450 5437 5422 5408 5381 5364 5364 5347 5325 5311 5300 5295 5295 5295 5296 5291 5292 5292 5287 5288 5291 5284 5275 5275 5276 5273 5278 5278 5292 5269 5258 5261 5268 5260 5246 5259 5278 5314 5318 5301
5475 5469 5462 5454 5443 5431 5419 5406 5382 5366 5352 5334 5322 5311 5303 5295 5296 5294 5292 5291 5294 5294 5291 5290 5276 5272 5267 5267 5265 5264 5267 5272 5273 5275 5258 5259 5259 5257 5250 5244 5283 5271 5262 5271
5468 5462 5455 5447 5439 5429 5419 5398 5356 5345 5337 5330 5323 5317 5305 5295 5290 5297 5293 5289 5284 5275 5272 5279 5269 5267 5269 5265 5263 5262 5260 5261 5266 5259 5257 5258 5254 5252 5244 5231 5219 5252 5232 5239
5460 5454 5449 5440 5430 5421 5410 5388 5367 5354 5343 5334 5325 5317 5303 5294 5289 5287 5282 5277 5277 5274 5258 5249 5242 5250 5256 5252 5261 5258 5258 5262 5259 5256 5256 5257 5241 5244 5243 5233 5218 5235 5239 5242
5454 5448 5441 5433 5424 5416 5398 5373 5360 5357 5342 5334 5327 5310 5305 5300 5299 5289 5281 5279 5279 5266 5252 5254 5251 5251 5248 5242 5243 5249 5244 5251 5256 5255 5253 5255 5246 5218 5226 5219 5214 5206 5219 5221
5450 5442 5435 5426 5416 5407 5390 5366 5363 5357 5341 5334 5320 5311 5308 5301 5298 5290 5285 5281 5278 5259 5256 5255 5255 5253 5250 5251 5248 5245 5248 5242 5246 5259 5253 5244 5217 5224 5224 5213 5207 5208 5209 5210
5446 5438 5430 5420 5410 5399 5387 5369 5362 5351 5336 5334 5320 5310 5306 5312 5305 5296 5286 5277 5269 5264 5260 5264 5260 5266 5257 5257 5249 5247 5239 5239 5245 5253 5252 5225 5220 5215 5210 5207 5199 5195 5196 5200
5441 5433 5426 5416 5406 5396 5385 5367 5355 5346 5344 5316 5296 5305 5304 5301 5301 5308 5289 5281 5273 5268 5272 5276 5267 5263 5243 5256 5256 5249 5250 5232 5249 5250 5245 5239 5213 5214 5210 5206 5202 5186 5184 5184
5437 5430 5421 5412 5403 5393 5383 5366 5352 5345 5327 5306 5305 5302 5292 5289 5289 5291 5289 5277 5276 5275 5283 5278 5271 5266 5241 5251 5240 5229 5240 5239 5239 5244 5241 5223 5207 5205 5206 5196 5176 5167 5168 5166
5434 5425 5417 5410 5401 5391 5381 5363 5352 5344 5323 5304 5300 5292 5285 5287 5282 5284 5285 5281 5276 5278 5277 5277 5263 5266 5242 5238 5216 5204 5210 5209 5235 5234 5229 5218 5194 5203 5191 5156 5153 5150 5150 5148
5431 5422 5414 5407 5399 5389 5380 5367 5351 5340 5328 5307 5296 5288 5281 5274 5268 5264 5273 5270 5264 5259 5268 5263 5260 5259 5245 5224 5249 5194 5212 5185 5190 5191 5198 5180 5170 5161 5145 5137 5129 5130 5126 5123
5429 5421 5412 5403 5396 5387 5378 5365 5351 5341 5325 5307 5300 5293 5281 5274 5268 5261 5263 5267 5253 5252 5240 5249 5245 5239 5233 5244 5219 5207 5188 5167 5184 5175 5167 5157 5156 5143 5128 5117 5109 5104 5101 5097
5427 5419 5408 5399 5392 5383 5373 5362 5347 5339 5331 5323 5297 5285 5280 5272 5267 5261 5256 5251 5246 5243 5244 5246 5246 5244 5216 5217 5195 5189 5165 5164 5154 5168 5165 5152 5147 5138 5107 5095 5084 5076 5073 5069
5423 5414 5405 5395 5387 5378 5367 5356 5344 5332 5326 5325 5301 5285 5276 5269 5265 5260 5254 5248 5245 5247 5247 5244 5231 5218 5212 5195 5193 5169 5152 5132 5134 5144 5133 5116 5117 5099 5089 5075 5065 5058 5053 5053
5420 5411 5404 5395 5384 5374 5365 5360 5342 5332 5321 5316 5307 5285 5277 5268 5262 5256 5248 5242 5238 5237 5239 5224 5207 5182 5194 5210 5185 5148 5135 5123 5113 5109 5100 5085 5079 5075 5061 5049 5043 5040 5039 5032
5417 5408 5400 5391 5382 5371 5362 5353 5339 5330 5320 5314 5299 5294 5275 5265 5259 5254 5250 5239 5234 5233 5224 5221 5217 5201 5195 5189 5177 5142 5126 5114 5102 5091 5078 5077 5065 5052 5041 5033 5030 5027 5022 5019
5414 5404 5394 5385 5377 5367 5358 5346 5337 5327 5317 5307 5299 5295 5278 5259 5261 5259 5242 5244 5236 5221 5217 5209 5209 5195 5189 5167 5146 5128 5117 5107 5094 5080 5064 5051 5045 5035 5028 5023 5022 5018 5012 5008
5412 5400 5388 5380 5373 5367 5355 5342 5333 5322 5312 5303 5293 5283 5282 5257 5250 5244 5242 5234 5239 5213 5219 5206 5197 5192 5177 5153 5131 5118 5106 5092 5083 5072 5058 5047 5035 5028 5023 5021 5015 5010 5004 5002
5405 5394 5385 5383 5371 5358 5349 5338 5333 5320 5303 5292 5285 5263 5267 5248 5248 5244 5236 5231 5228 5232 5203 5193 5200 5179 5153 5135 5121 5108 5096 5083 5072 5063 5058 5047 5034 5026 5020 5013 5009 5003 4997 4992
5400 5393 5387 5371 5362 5356 5345 5334 5327 5306 5297 5279 5265 5254 5250 5234 5235 5234 5213 5220 5216 5228 5206 5202 5200 5189 5156 5129 5113 5101 5090 5078 5066 5057 5049 5039 5031 5023 5016 5009 5002 4995 4988 4982
5396 5387 5374 5365 5358 5351 5346 5320 5310 5303 5295 5272 5265 5254 5240 5230 5219 5222 5211 5220 5209 5227 5187 5198 5204 5169 5141 5123 5109 5100 5091 5079 5068 5058 5046 5035 5025 5018 5009 5003 4996 4987 4980 4975
5389 5381 5372 5364 5353 5350 5346 5331 5321 5306 5278 5263 5255 5249 5235 5225 5215 5209 5208 5218 5222 5184 5200 5213 5191 5154 5139 5119 5110 5101 5090 5079 5068 5056 5043 5031 5022 5013 5006 4999 4989 4980 4975 4973
5387 5380 5372 5361 5357 5342 5332 5322 5308 5283 5271 5260 5245 5238 5231 5221 5217 5206 5219 5197 5187 5214 5213 5208 5177 5149 5131 5119 5109 5098 5087 5076 5064 5052 5040 5029 5018 5011 5004 4996 4985 4980 4975 4973
5382 5369 5377 5351 5333 5319 5306 5292 5285 5270 5258 5249 5240 5230 5222 5221 5213 5205 5202 5207 5222 5211 5210 5190 5169 5141 5119 5113 5106 5094 5082 5071 5059 5048 5037 5027 5018 5009 5003 4994 4988 4980 4973 4971
5367 5355 5349 5330 5330 5316 5298 5289 5282 5262 5252 5239 5232 5232 5225 5221 5207 5210 5217 5217 5223 5212 5190 5176 5157 5136 5121 5112 5102 5093 5082 5070 5058 5049 5038 5028 5016 5008 5000 4996 4990 4981 4975 4969
5360 5353 5341 5335 5326 5322 5304 5288 5274 5257 5248 5251 5232 5228 5233 5191 5209 5212 5199 5216 5209 5193 5182 5166 5146 5133 5121 5109 5101 5092 5081 5070 5060 5048 5036 5026 5018 5008 5003 4997 4989 4982 4978 4971